Weather History for Big Piney, WY

Change the Weather History Date:

Thursday, February 28, 2013

  Actual Average Record
Temperature  
Mean Temperature 14 °F 20 °F  
Max Temperature 34 °F 34 °F 45 °F (1999)
Min Temperature -6 °F 6 °F -31 °F (1993)
Degree Days  
Heating Degree Days 51 45  
Month to date heating degree days 1390 1410  
Since 1 July heating degree days 6864 7523  
Cooling Degree Days 0 0  
Month to date cooling degree days 0 0  
Year to date cooling degree days 0 0  
Moisture  
Dew Point 7 °F    
Average Humidity 69    
Maximum Humidity 87    
Minimum Humidity 50    
Precipitation  
Precipitation 0.00 in 0.01 in 0.19 in (2004)
Month to date precipitation 0.09 0.35  
Year to date precipitation 0.16 0.66  
Sea Level Pressure  
Sea Level Pressure 30.49 in    
Wind  
Wind Speed 6 mph (North)    
Max Wind Speed 23 mph    
Max Gust Speed 29 mph    
Visibility 10 miles    
Events      
T = Trace of Precipitation, MM = Missing Value Source: NWS Daily Summary

Daily Weather History Graph

Daily Weather History Graph

Search for Another Location

Airport:

Trip Planner

Search our weather history database for the weather conditions in past years. The results will help you decide how hot, cold, wet, or windy it might be!

Date:

Astronomy

Feb. 28, 2013 Rise Set
Actual Time 6:57 AM MST 6:09 PM MST
Civil Twilight 6:28 AM MST 6:37 PM MST
Nautical Twilight 5:56 AM MST 7:10 PM MST
Astronomical Twilight 5:23 AM MST 7:42 PM MST
Moon 9:46 PM MST (2/28) 8:03 AM MST (2/28)
Length of Visible Light 12h 08m
Length of Day
11h 12m
Waning Gibbous, 90% of the Moon is Illuminated
Feb 28
Waning Gibbous
Mar 4
Last Quarter
Mar 11
New
Mar 19
First Quarter
Mar 27
Full

Hourly Weather History & Observations

Time (MST) Temp. Windchill Dew Point Humidity Pressure Visibility Wind Dir Wind Speed Gust Speed Precip Events Conditions
12:53 AM 6.1 °F -2.8 °F -0.9 °F 73% 30.46 in 10.0 mi WSW 4.6 mph - N/A   Clear
1:53 AM 3.9 °F -3.4 °F -2.9 °F 73% 30.45 in 10.0 mi West 3.5 mph - N/A   Clear
2:53 AM 1.0 °F - -4.0 °F 79% 30.43 in 10.0 mi Calm Calm - N/A   Clear
3:53 AM -2.0 °F -13.9 °F -7.1 °F 79% 30.45 in 10.0 mi East 5.8 mph - N/A   Clear
4:53 AM -2.9 °F - -7.1 °F 82% 30.45 in 10.0 mi Calm Calm - N/A   Clear
5:53 AM -4.0 °F -12.4 °F -8.0 °F 83% 30.51 in 10.0 mi West 3.5 mph - N/A   Clear
6:53 AM -2.9 °F - -8.0 °F 79% 30.55 in 10.0 mi Calm Calm - N/A   Partly Cloudy
7:53 AM 1.0 °F - -4.0 °F 79% 30.54 in 10.0 mi Calm Calm - N/A   Clear
8:53 AM 7.0 °F - 1.0 °F 77% 30.55 in 10.0 mi Calm Calm - N/A   Clear
9:53 AM 12.0 °F 4.1 °F 6.1 °F 77% 30.51 in 10.0 mi SW 4.6 mph - N/A   Clear
10:53 AM 15.1 °F 7.7 °F 6.1 °F 68% 30.52 in 10.0 mi SSE 4.6 mph - N/A   Mostly Cloudy
11:53 AM 19.9 °F - 9.0 °F 62% 30.48 in 10.0 mi Calm Calm - N/A   Scattered Clouds
12:53 PM 26.1 °F - 10.9 °F 53% 30.44 in 10.0 mi Calm Calm - N/A   Scattered Clouds
1:53 PM 27.0 °F 23.0 °F 12.0 °F 53% 30.43 in 10.0 mi SE 3.5 mph - N/A   Overcast
2:53 PM 28.9 °F 21.9 °F 15.1 °F 56% 30.43 in 10.0 mi ESE 6.9 mph - N/A   Clear
3:53 PM 32.0 °F 20.5 °F 19.9 °F 61% 30.45 in 10.0 mi NNW 18.4 mph - N/A   Clear
4:53 PM 30.9 °F 18.4 °F 19.9 °F 64% 30.47 in 10.0 mi North 20.7 mph 27.6 mph N/A   Clear
5:53 PM 28.0 °F 15.3 °F 19.0 °F 69% 30.50 in 10.0 mi North 18.4 mph - N/A   Partly Cloudy
6:53 PM 26.1 °F 15.6 °F 18.0 °F 71% 30.53 in 10.0 mi North 11.5 mph - N/A   Overcast
7:53 PM 25.0 °F 14.2 °F 17.1 °F 72% 30.53 in 10.0 mi North 11.5 mph - N/A   Mostly Cloudy
8:53 PM 23.0 °F 11.1 °F 16.0 °F 74% 30.51 in 10.0 mi North 12.7 mph - N/A   Clear
9:53 PM 19.0 °F 12.3 °F 14.0 °F 81% 30.51 in 10.0 mi East 4.6 mph - N/A   Clear
10:53 PM 17.1 °F 11.7 °F 12.9 °F 84% 30.51 in 10.0 mi NNW 3.5 mph - N/A   Clear
11:53 PM 14.0 °F 6.5 °F 10.0 °F 84% 30.51 in 10.0 mi ENE 4.6 mph - N/A   Clear